{"data":{"norad_id":65350,"intl_designator":"2025-189AD","name":"STARLINK-34892","alt_names":[],"object_type":"PAYLOAD","status":"ACTIVE","operator":null,"country":"US","launch_date":"2025-08-27","launch_site_code":"AFETR","launch_vehicle":null,"mission":null,"orbit_class":"UNKNOWN","rcs_meters":null,"size_class":null,"mass_kg":null,"dimensions":null,"purposes":["comms"],"wikipedia_slug":null,"has_3d_model":false,"image_url":null,"decayed_at":null,"tle_current":{"epoch":"2026-05-24T21:57:14.095008Z","epoch_age_seconds":72696,"freshness":"FRESH","line1":"1 65350U 25189AD  26144.91474647  .00018090  00000+0  59315-3 0  9996","line2":"2 65350  53.1588 212.2236 0001317  78.2409 281.8740 15.31706738 42738","mean_motion":15.31706738,"eccentricity":0.0001317,"inclination_deg":53.1588,"raan_deg":212.2236,"arg_perigee_deg":78.2409,"mean_anomaly_deg":281.874,"bstar":0.00059315,"rev_number":4273,"period_min":94.012774395721,"perigee_km":469.81791521689,"apogee_km":471.6219041269,"semimajor_km":6848.8569096719,"source":"CELESTRAK","updated_at":"2026-05-25T13:38:20.764169Z"}}}